星链-1805 (STARLINK-1805 )

导读 | 星芒AI

STARLINK-1805 是 SpaceX Starlink 项目中的一颗低轨通信卫星,属于第18批发射的星链卫星群。该卫星于2021年10月28日由猎鹰9号火箭成功送入近地轨道,旨在为全球用户提供高速互联网服务。它运行在约550公里高的轨道上,配备先进通信设备,支持宽带数据传输。作为星链网络的一部分,STARLINK-1805 有助于扩大覆盖范围,提升网络稳定性和连接速度,特别是在偏远和网络基础设施薄弱的地区。

基本信息
目录编号:
46705
目录名称:
STARLINK-1805
国际标识:
2020-073AM
轨道中心:
EARTH
卫星名称:
星链-1805
卫星全名:
星链-1805 (STARLINK-1805 )
卫星状态:
在轨 (已飞行1837 天)
发射日期:
2020-10-18 UTC
国别 :
美国 (US)
星等 :
--
轨道信息
数据来源 国际轨道数据
星历时间: 2025-10-29T19:56:23+0800
4小时前
查看轨道信息
半长轴: 6925.345km
偏心率: 0.0001427
轨道倾角: 53.054°
近地点辐角 95.080°
升交点赤经 125.563°
平近点角 265.036°
近地点: 546.221km
远地点: 548.199km
周期: 95.592分钟
每日圈数: 15.064014
详细信息
固有亮度:
5
最大亮度:
2.5
卫星平台:
Starlink V1.0
覆盖范围:
全球
运营商:
太空探索技术公司
运营商所在国:
美国
制造商(研发单位):
太空探索技术公司
制造商所在国:
美国
使用方式:
暂无
卫星简介
星链(Starlink)计划是由太空探索技术公司(SpaceX)提出的一个巨型低轨卫星互联网星座项目,计划在2019年至2024年间在太空搭建由约1.2万颗卫星组成的“星链”网络,其中1584颗将部署在地球上空550千米处的近地轨道,并从2020年开始工作。该卫星仍在工作。
2D轨道图
3D轨道图
轨道高度分析图
轨道倾角分析图
轨道综合分析图
查看轨道综合分析图